Woodward, OK

4:08 PM CDT on July 23, 2017 (GMT -0500)
West Woodward

Weather History for KWWR - October, 2011

Change the Weather History Date:

Sunday, October 9, 2011

  Actual Average (KGAG) Record (KGAG)
Temperature  
Mean Temperature 55 °F -  
Max Temperature 60 °F 73 °F 95 °F (1965)
Min Temperature 50 °F 44 °F 21 °F (2000)
Degree Days  
Heating Degree Days 10    
Growing Degree Days 5 (Base 50)    
Moisture  
Dew Point 53 °F    
Average Humidity 93    
Maximum Humidity 100    
Minimum Humidity 88    
Precipitation  
Precipitation 0.40 in - - ()
Sea Level Pressure  
Sea Level Pressure 30.10 in    
Wind  
Wind Speed 3 mph (NW)    
Max Wind Speed 13 mph    
Max Gust Speed -    
Visibility 8 miles    
Events Rain    
Averages and records for this station are not official NWS values.
T = Trace of Precipitation, MM = Missing Value Source: NWS Daily Summary

Daily Weather History Graph

Daily Weather History Graph

Search for Another Location

Airport or City:

Trip Planner

Search our weather history database for the weather conditions in past years. The results will help you decide how hot, cold, wet, or windy it might be!

Date:

Astronomy

Oct. 09, 2011 Rise Set
Actual Time 7:39 AM CDT 7:10 PM CDT
Civil Twilight 7:13 AM CDT 7:36 PM CDT
Nautical Twilight 6:44 AM CDT 8:05 PM CDT
Astronomical Twilight 6:14 AM CDT 8:35 PM CDT
Moon 5:46 PM CDT (10/9) 5:28 AM CDT (10/9)
Length of Visible Light 12h 22m
Length of Day
11h 30m
Waxing Gibbous, 95% of the Moon is Illuminated
Oct 9
Waxing Gibbous
Oct 11
Full
Oct 19
Last Quarter
Oct 26
New
Nov 2
First Quarter

Hourly Weather History & Observations

Time (CDT) Temp. Dew Point Humidity Pressure Visibility Wind Dir Wind Speed Gust Speed Precip Events Conditions
12:15 AM 59.0 °F 55.4 °F 88% 30.10 in 10.0 mi Calm Calm - N/A   Overcast
12:35 AM 59.0 °F 55.4 °F 88% 30.10 in 10.0 mi Calm Calm - N/A   Overcast
12:55 AM 59.0 °F 55.4 °F 88% 30.09 in 10.0 mi NE 3.5 mph - N/A   Overcast
1:15 AM 59.0 °F 55.4 °F 88% 30.09 in 10.0 mi Calm Calm - N/A   Overcast
1:35 AM 59.0 °F 55.4 °F 88% 30.09 in 5.0 mi ENE 3.5 mph - 0.03 in Rain Rain
1:55 AM 59.0 °F 55.4 °F 88% 30.09 in 5.0 mi Calm Calm - 0.07 in   Heavy Drizzle
2:15 AM 59.0 °F 55.4 °F 88% 30.09 in 7.0 mi NNE 3.5 mph - 0.02 in   Heavy Drizzle
2:35 AM 59.0 °F 55.4 °F 88% 30.09 in 4.0 mi Calm Calm - 0.03 in   Heavy Drizzle
2:55 AM 59.0 °F 57.2 °F 94% 30.09 in 10.0 mi NE 4.6 mph - 0.04 in   Overcast
3:15 AM 59.0 °F 57.2 °F 94% 30.09 in 10.0 mi NNE 3.5 mph - N/A Rain Light Rain
3:35 AM 59.0 °F 57.2 °F 94% 30.08 in 7.0 mi Calm Calm - N/A Rain Light Rain
3:55 AM 59.0 °F 59.0 °F 100% 30.07 in 7.0 mi ENE 3.5 mph - N/A   Drizzle
4:15 AM 59.0 °F 59.0 °F 100% 30.07 in 7.0 mi Calm Calm - N/A Rain Light Rain
4:35 AM 60.8 °F 59.0 °F 94% 30.07 in 7.0 mi Calm Calm - 0.01 in   Drizzle
4:55 AM 60.8 °F 59.0 °F 94% 30.07 in 10.0 mi Calm Calm - 0.01 in   Overcast
5:15 AM 59.0 °F 57.2 °F 94% 30.07 in 5.0 mi Calm Calm - N/A   Overcast
5:35 AM 55.4 °F 55.4 °F 100% 30.07 in 7.0 mi NNW 9.2 mph - N/A Rain Rain
5:55 AM 55.4 °F 53.6 °F 94% 30.07 in 10.0 mi NW 8.1 mph - N/A   Overcast
6:35 AM 55.4 °F 53.6 °F 94% 30.09 in 10.0 mi NNW 6.9 mph - N/A   Overcast
6:55 AM 55.4 °F 53.6 °F 94% 30.09 in 10.0 mi NW 5.8 mph - N/A   Overcast
7:15 AM 55.4 °F 53.6 °F 94% 30.10 in 10.0 mi West 5.8 mph - N/A   Overcast
7:35 AM 55.4 °F 53.6 °F 94% 30.10 in 7.0 mi NW 6.9 mph - N/A   Heavy Drizzle
7:55 AM 55.4 °F 53.6 °F 94% 30.10 in 4.0 mi WNW 5.8 mph - 0.02 in Rain Heavy Rain
8:15 AM 53.6 °F 51.8 °F 94% 30.12 in 7.0 mi WNW 11.5 mph - N/A   Light Drizzle
8:35 AM 51.8 °F 50.0 °F 94% 30.12 in 10.0 mi NW 12.7 mph - N/A   Overcast
8:55 AM 51.8 °F 50.0 °F 94% 30.12 in 2.0 mi NW 9.2 mph - 0.02 in   Heavy Drizzle
9:15 AM 51.8 °F 50.0 °F 94% 30.13 in 4.0 mi NW 9.2 mph - 0.01 in   Drizzle
9:35 AM 51.8 °F 50.0 °F 94% 30.14 in 10.0 mi WNW 8.1 mph - 0.01 in   Drizzle
9:55 AM 51.8 °F 50.0 °F 94% 30.14 in 2.5 mi WNW 9.2 mph - 0.02 in   Heavy Drizzle
10:15 AM 51.8 °F 50.0 °F 94% 30.14 in 5.0 mi NW 8.1 mph - N/A   Drizzle
11:15 AM 50.0 °F 50.0 °F 100% 30.15 in 4.0 mi WNW 8.1 mph - 0.03 in Rain Rain
11:35 AM 50.0 °F 50.0 °F 100% 30.15 in 5.0 mi West 8.1 mph - 0.06 in Rain Rain
11:55 AM 51.8 °F 50.0 °F 94% 30.15 in 10.0 mi NW 3.5 mph - 0.10 in Rain Rain
12:15 PM 51.8 °F 50.0 °F 94% 30.14 in 10.0 mi NW 4.6 mph - 0.03 in Rain Light Rain
12:35 PM 51.8 °F 50.0 °F 94% 30.15 in 10.0 mi NW 6.9 mph - 0.04 in Rain Rain
12:55 PM 51.8 °F 50.0 °F 94% 30.14 in 10.0 mi NW 5.8 mph - 0.05 in Rain Light Rain
1:15 PM 51.8 °F 50.0 °F 94% 30.13 in 10.0 mi NW 5.8 mph - 0.02 in Rain Light Rain
1:35 PM 51.8 °F 50.0 °F 94% 30.13 in 10.0 mi WNW 3.5 mph - 0.03 in Rain Light Rain
2:15 PM 51.8 °F 50.0 °F 94% 30.11 in 10.0 mi Calm Calm - 0.01 in Rain Light Rain
2:35 PM 53.6 °F 50.0 °F 88% 30.10 in 10.0 mi Calm Calm - 0.02 in Rain Light Rain
2:55 PM 53.6 °F 51.8 °F 94% 30.10 in 10.0 mi Calm Calm - 0.03 in Rain Light Rain
3:15 PM 53.6 °F 51.8 °F 94% 30.10 in 10.0 mi Calm Calm - N/A Rain Light Rain
3:35 PM 53.6 °F 51.8 °F 94% 30.11 in 10.0 mi WNW 3.5 mph - N/A Rain Light Rain
3:55 PM 53.6 °F 51.8 °F 94% 30.11 in 10.0 mi West 5.8 mph - N/A   Light Drizzle
4:15 PM 53.6 °F 51.8 °F 94% 30.12 in 10.0 mi West 5.8 mph - N/A   Overcast
4:55 PM 53.6 °F 51.8 °F 94% 30.10 in 10.0 mi WNW 5.8 mph - 0.01 in Rain Rain
5:15 PM 53.6 °F 51.8 °F 94% 30.11 in 10.0 mi West 8.1 mph - N/A   Light Drizzle
5:35 PM 53.6 °F 51.8 °F 94% 30.10 in 10.0 mi West 3.5 mph - N/A   Overcast
5:55 PM 53.6 °F 51.8 °F 94% 30.10 in 10.0 mi Calm Calm - N/A   Mostly Cloudy
6:15 PM 53.6 °F 51.8 °F 94% 30.09 in 10.0 mi East 5.8 mph - N/A   Overcast
6:35 PM 53.6 °F 51.8 °F 94% 30.08 in 10.0 mi ESE 4.6 mph - N/A   Overcast
6:55 PM 55.4 °F 51.8 °F 88% 30.09 in 10.0 mi Calm Calm - N/A   Mostly Cloudy
7:15 PM 53.6 °F 51.8 °F 94% 30.10 in 10.0 mi Calm Calm - N/A   Scattered Clouds
7:35 PM 53.6 °F 51.8 °F 94% 30.10 in 10.0 mi Calm Calm - N/A   Clear
7:55 PM 53.6 °F 51.8 °F 94% 30.10 in 10.0 mi East 3.5 mph - N/A   Clear
8:15 PM 53.6 °F 51.8 °F 94% 30.10 in 10.0 mi Calm Calm - N/A   Clear
8:35 PM 51.8 °F 50.0 °F 94% 30.10 in 10.0 mi Calm Calm - N/A   Clear
8:55 PM 51.8 °F 50.0 °F 94% 30.11 in 10.0 mi Calm Calm - N/A   Clear
9:15 PM 51.8 °F 50.0 °F 94% 30.11 in 10.0 mi Calm Calm - N/A   Clear
9:35 PM 51.8 °F 50.0 °F 94% 30.11 in 10.0 mi Calm Calm - N/A   Clear
9:55 PM 50.0 °F 48.2 °F 94% 30.11 in 5.0 mi WSW 3.5 mph - N/A   Clear
10:15 PM 50.0 °F 48.2 °F 94% 30.11 in 1.2 mi West 3.5 mph - N/A   Scattered Clouds
10:35 PM 50.0 °F 46.4 °F 87% 30.12 in 0.2 mi SW 4.6 mph - N/A Fog Fog
10:55 PM 50.0 °F 48.2 °F 94% 30.12 in 0.2 mi SW 5.8 mph - N/A Fog Fog
11:15 PM 50.0 °F 46.4 °F 87% 30.12 in 0.5 mi WSW 5.8 mph - N/A Fog Fog
11:35 PM 48.2 °F 46.4 °F 93% 30.12 in 0.8 mi SSW 4.6 mph - N/A   Overcast
11:55 PM 48.2 °F 46.4 °F 93% 30.12 in 0.5 mi SSW 4.6 mph - N/A Fog Fog